TimeEST,TemperatureF,Dew PointF,Humidity,Sea Level PressureIn,VisibilityMPH,Wind Direction,Wind SpeedMPH,Gust SpeedMPH,PrecipitationIn,Events,Conditions,WindDirDegrees,DateUTC
12:15 AM,28.4,10.4,47,30.33,10.0,NNW,8.1,-,N/A,,Clear,340,2013-12-27 05:15:00
12:35 AM,28.4,12.2,51,30.32,10.0,SE,4.6,-,N/A,,Clear,140,2013-12-27 05:35:00
12:55 AM,30.2,10.4,44,30.32,10.0,Calm,Calm,-,N/A,,Clear,0,2013-12-27 05:55:00
1:15 AM,32.0,6.8,35,30.33,10.0,Calm,Calm,-,N/A,,Clear,0,2013-12-27 06:15:00
1:35 AM,30.2,8.6,40,30.32,10.0,Calm,Calm,-,N/A,,Clear,0,2013-12-27 06:35:00
1:55 AM,30.2,8.6,40,30.33,10.0,Calm,Calm,-,N/A,,Clear,0,2013-12-27 06:55:00
2:15 AM,30.2,8.6,40,30.33,10.0,Calm,Calm,-,N/A,,Clear,0,2013-12-27 07:15:00
2:35 AM,28.4,8.6,43,30.33,10.0,Calm,Calm,-,N/A,,Clear,0,2013-12-27 07:35:00
2:55 AM,26.6,10.4,51,30.34,10.0,Calm,Calm,-,N/A,,Clear,0,2013-12-27 07:55:00
3:15 AM,26.6,10.4,51,30.35,10.0,Calm,Calm,-,N/A,,Clear,0,2013-12-27 08:15:00
3:35 AM,26.6,12.2,55,30.35,10.0,Calm,Calm,-,N/A,,Clear,0,2013-12-27 08:35:00
3:55 AM,28.4,10.4,47,30.35,10.0,Calm,Calm,-,N/A,,Clear,0,2013-12-27 08:55:00
4:15 AM,28.4,10.4,47,30.35,10.0,Calm,Calm,-,N/A,,Clear,0,2013-12-27 09:15:00
4:35 AM,30.2,8.6,40,30.35,10.0,Calm,Calm,-,N/A,,Clear,0,2013-12-27 09:35:00
4:55 AM,30.2,5.0,34,30.35,10.0,Calm,Calm,-,N/A,,Clear,0,2013-12-27 09:55:00
5:15 AM,30.2,6.8,37,30.35,10.0,Calm,Calm,-,N/A,,Clear,0,2013-12-27 10:15:00
5:35 AM,26.6,10.4,51,30.34,10.0,Calm,Calm,-,N/A,,Clear,0,2013-12-27 10:35:00
5:55 AM,24.8,10.4,54,30.35,10.0,South,4.6,-,N/A,,Clear,190,2013-12-27 10:55:00
6:15 AM,24.8,12.2,59,30.35,10.0,SSW,5.8,-,N/A,,Clear,200,2013-12-27 11:15:00
6:35 AM,24.8,12.2,59,30.35,10.0,SSW,5.8,-,N/A,,Clear,210,2013-12-27 11:35:00
6:55 AM,23.0,12.2,63,30.35,10.0,SW,4.6,-,N/A,,Clear,230,2013-12-27 11:55:00
7:15 AM,23.0,12.2,63,30.36,10.0,WSW,3.5,-,N/A,,Clear,250,2013-12-27 12:15:00
7:35 AM,23.0,12.2,63,30.37,10.0,SW,4.6,-,N/A,,Clear,230,2013-12-27 12:35:00
7:55 AM,23.0,14.0,68,30.38,10.0,WSW,3.5,-,N/A,,Clear,240,2013-12-27 12:55:00
8:15 AM,24.8,14.0,64,30.38,10.0,SSW,4.6,-,N/A,,Clear,210,2013-12-27 13:15:00
8:35 AM,24.8,14.0,64,30.38,10.0,SW,3.5,-,N/A,,Clear,220,2013-12-27 13:35:00
8:55 AM,26.6,15.8,64,30.40,10.0,Calm,Calm,-,N/A,,Clear,0,2013-12-27 13:55:00
9:15 AM,28.4,15.8,59,30.40,10.0,Calm,Calm,-,N/A,,Clear,0,2013-12-27 14:15:00
9:35 AM,28.4,14.0,55,30.41,10.0,South,4.6,-,N/A,,Clear,190,2013-12-27 14:35:00
9:55 AM,30.2,15.8,55,30.41,10.0,South,3.5,-,N/A,,Clear,180,2013-12-27 14:55:00
10:15 AM,33.8,14.0,44,30.41,10.0,South,4.6,-,N/A,,Clear,190,2013-12-27 15:15:00
10:35 AM,35.6,15.8,44,30.41,10.0,SSW,8.1,-,N/A,,Clear,210,2013-12-27 15:35:00
10:55 AM,37.4,14.0,38,30.42,10.0,SW,5.8,-,N/A,,Clear,230,2013-12-27 15:55:00
11:15 AM,39.2,12.2,33,30.42,10.0,SSW,4.6,-,N/A,,Clear,210,2013-12-27 16:15:00
11:35 AM,39.2,8.6,28,30.41,10.0,SSW,8.1,-,N/A,,Clear,200,2013-12-27 16:35:00
11:55 AM,41.0,6.8,24,30.40,10.0,SW,4.6,-,N/A,,Clear,230,2013-12-27 16:55:00
12:15 PM,42.8,5.0,21,30.39,10.0,SW,6.9,-,N/A,,Clear,230,2013-12-27 17:15:00
12:35 PM,42.8,3.2,19,30.38,10.0,SSW,8.1,-,N/A,,Clear,210,2013-12-27 17:35:00
12:55 PM,42.8,3.2,19,30.37,10.0,SW,8.1,-,N/A,,Clear,220,2013-12-27 17:55:00
1:15 PM,44.6,3.2,18,30.37,10.0,Calm,Calm,-,N/A,,Clear,0,2013-12-27 18:15:00
1:35 PM,44.6,1.4,17,30.36,10.0,WSW,8.1,-,N/A,,Clear,240,2013-12-27 18:35:00
1:55 PM,44.6,3.2,18,30.36,10.0,West,5.8,-,N/A,,Clear,270,2013-12-27 18:55:00
2:15 PM,44.6,1.4,17,30.35,10.0,NW,3.5,-,N/A,,Clear,310,2013-12-27 19:15:00
2:35 PM,46.4,1.4,16,30.35,10.0,WSW,3.5,-,N/A,,Clear,240,2013-12-27 19:35:00
2:55 PM,46.4,1.4,16,30.34,10.0,WNW,3.5,-,N/A,,Clear,300,2013-12-27 19:55:00
3:15 PM,48.2,1.4,15,30.34,10.0,West,4.6,-,N/A,,Clear,280,2013-12-27 20:15:00
3:35 PM,46.4,1.4,16,30.34,10.0,West,4.6,-,N/A,,Clear,260,2013-12-27 20:35:00
3:55 PM,48.2,1.4,15,30.34,10.0,WNW,3.5,-,N/A,,Clear,290,2013-12-27 20:55:00
4:15 PM,48.2,3.2,16,30.34,10.0,Calm,Calm,-,N/A,,Clear,0,2013-12-27 21:15:00
4:35 PM,44.6,1.4,17,30.34,10.0,WNW,3.5,-,N/A,,Clear,290,2013-12-27 21:35:00
4:55 PM,44.6,1.4,17,30.35,10.0,Calm,Calm,-,N/A,,Clear,0,2013-12-27 21:55:00
5:15 PM,42.8,1.4,18,30.35,10.0,WNW,5.8,-,N/A,,Clear,300,2013-12-27 22:15:00
5:35 PM,42.8,1.4,18,30.36,10.0,WNW,4.6,-,N/A,,Clear,300,2013-12-27 22:35:00
5:55 PM,42.8,1.4,18,30.35,10.0,WNW,8.1,-,N/A,,Clear,300,2013-12-27 22:55:00
6:15 PM,41.0,-0.4,18,30.35,10.0,NW,10.4,-,N/A,,Clear,310,2013-12-27 23:15:00
6:35 PM,39.2,1.4,21,30.36,10.0,WNW,8.1,-,N/A,,Clear,290,2013-12-27 23:35:00
6:55 PM,39.2,1.4,21,30.37,10.0,WNW,8.1,-,N/A,,Clear,290,2013-12-27 23:55:00
7:15 PM,39.2,-0.4,19,30.37,10.0,WNW,9.2,-,N/A,,Clear,300,2013-12-28 00:15:00
7:35 PM,39.2,-0.4,19,30.37,10.0,West,4.6,-,N/A,,Clear,270,2013-12-28 00:35:00
7:55 PM,37.4,3.2,24,30.38,10.0,SW,4.6,-,N/A,,Clear,230,2013-12-28 00:55:00
8:15 PM,37.4,3.2,24,30.37,10.0,WSW,4.6,-,N/A,,Clear,240,2013-12-28 01:15:00
8:35 PM,37.4,3.2,24,30.38,10.0,WSW,4.6,-,N/A,,Clear,240,2013-12-28 01:35:00
8:55 PM,35.6,6.8,30,30.38,10.0,SSW,3.5,-,N/A,,Clear,210,2013-12-28 01:55:00
9:15 PM,33.8,10.4,38,30.38,10.0,Calm,Calm,-,N/A,,Clear,0,2013-12-28 02:15:00
9:35 PM,33.8,10.4,38,30.38,10.0,SSE,5.8,-,N/A,,Clear,160,2013-12-28 02:35:00
9:55 PM,35.6,10.4,35,30.37,10.0,South,3.5,-,N/A,,Clear,180,2013-12-28 02:55:00
10:15 PM,35.6,10.4,35,30.38,10.0,SSW,4.6,-,N/A,,Clear,210,2013-12-28 03:15:00
10:35 PM,35.6,10.4,35,30.38,10.0,South,4.6,-,N/A,,Clear,190,2013-12-28 03:35:00
10:55 PM,33.8,12.2,41,30.38,10.0,South,4.6,-,N/A,,Clear,190,2013-12-28 03:55:00
11:15 PM,32.0,12.2,44,30.38,10.0,SSW,4.6,-,N/A,,Clear,210,2013-12-28 04:15:00
11:35 PM,32.0,12.2,44,30.38,10.0,SW,4.6,-,N/A,,Clear,220,2013-12-28 04:35:00
11:55 PM,32.0,12.2,44,30.37,10.0,Calm,Calm,-,N/A,,Clear,0,2013-12-28 04:55:00